Location: Kapuskasing
(49.3803°N, 82.4001°W)
Time: 10:16:33
(UTC-04:00)

Envisat - Pass Details

Date: 18 March 2026
Orbit: 761 x 762 km, 98.4° (Epoch: 11 April)

Event Time Altitude Azimuth Distance (km) Brightness Sun altitude
Rises 05:08:23 0° 8° (N) 3,237 6.8 -24.0°
Reaches altitude 10° 05:10:50 10° 1° (N) 2,306 5.8 -23.6°
Enters shadow 05:15:12 38° 302° (WNW) 1,164 3.7 -23.0°
